| time (UTC) | temp F | wind direction | speed MPH | gust MPH | rain 1hr in | rain 24hr in | rain mn in | humidity % | barometer mb |
| 20260505083056 | 56 | 0 | 0.0 | 0.0 | 0.00 | 0.00 | 0.00 | 79 | 1015.6 |
| 20260505081556 | 56 | 0 | 0.0 | 3.0 | 0.00 | 0.00 | 0.00 | 79 | 1015.7 |
| 20260505080103 | 56 | 0 | 0.0 | 1.0 | 0.00 | 0.00 | 0.00 | 78 | 1015.6 |
| 20260505074556 | 57 | 0 | 0.0 | 2.0 | 0.00 | 0.00 | 0.00 | 77 | 1015.6 |
| 20260505073058 | 57 | 0 | 0.0 | 0.0 | 0.00 | 0.00 | 0.00 | 76 | 1015.7 |
| 20260505071556 | 58 | 0 | 0.0 | 2.0 | 0.00 | 0.00 | 0.00 | 75 | 1015.6 |
| 20260505070055 | 58 | 0 | 0.0 | 2.0 | 0.00 | 0.00 | 0.00 | 74 | 1015.4 |
| 20260505064555 | 59 | 0 | 1.0 | 2.0 | 0.00 | 0.00 | 0.00 | 74 | 1015.5 |
| 20260505063112 | 59 | 235 | 0.0 | 3.0 | 0.00 | 0.00 | 0.00 | 72 | 1015.4 |
| 20260505061556 | 59 | 0 | 0.0 | 3.0 | 0.00 | 0.00 | 0.00 | 72 | 1015.4 |
| 20260505060058 | 60 | 0 | 0.0 | 1.0 | 0.00 | 0.00 | 0.00 | 72 | 1015.5 |
| 20260505054609 | 60 | 244 | 1.0 | 4.0 | 0.00 | 0.00 | 0.00 | 72 | 1015.5 |
| 20260505053101 | 60 | 261 | 1.0 | 3.0 | 0.00 | 0.00 | 0.00 | 71 | 1015.6 |
| 20260505051558 | 61 | 0 | 0.0 | 3.0 | 0.00 | 0.00 | 0.00 | 71 | 1015.9 |
| 20260505050111 | 61 | 228 | 1.0 | 5.0 | 0.00 | 0.00 | 0.00 | 70 | 1015.7 |
| 20260505041606 | 62 | 237 | 1.0 | 5.0 | 0.00 | 0.00 | 0.00 | 68 | 1015.7 |
| 20260505040101 | 63 | 232 | 1.0 | 8.0 | 0.00 | 0.00 | 0.00 | 67 | 1015.7 |
| 20260505034600 | 63 | 223 | 3.0 | 8.0 | 0.00 | 0.00 | 0.00 | 66 | 1015.7 |
| 20260505033109 | 64 | 208 | 4.0 | 8.0 | 0.00 | 0.00 | 0.00 | 65 | 1015.6 |
| 20260505031606 | 64 | 223 | 2.0 | 10.0 | 0.00 | 0.00 | 0.00 | 65 | 1015.7 |
| 20260505030059 | 65 | 217 | 3.0 | 8.0 | 0.00 | 0.00 | 0.00 | 64 | 1015.6 |
| 20260505024606 | 65 | 208 | 2.0 | 10.0 | 0.00 | 0.00 | 0.00 | 63 | 1015.6 |
| 20260505023100 | 66 | 219 | 2.0 | 10.0 | 0.00 | 0.00 | 0.00 | 63 | 1015.6 |
| 20260505021608 | 66 | 237 | 3.0 | 10.0 | 0.00 | 0.00 | 0.00 | 62 | 1015.5 |
| 20260505020057 | 67 | 240 | 1.0 | 9.0 | 0.00 | 0.00 | 0.00 | 62 | 1015.4 |
| 20260505014608 | 68 | 186 | 3.0 | 13.0 | 0.00 | 0.00 | 0.00 | 61 | 1015.3 |
| 20260505013058 | 68 | 246 | 1.0 | 13.0 | 0.00 | 0.00 | 0.00 | 60 | 1015.0 |
| 20260505011606 | 69 | 196 | 2.0 | 8.0 | 0.00 | 0.00 | 0.00 | 57 | 1014.8 |
| 20260505010057 | 70 | 235 | 2.0 | 7.0 | 0.00 | 0.00 | 0.00 | 52 | 1014.6 |
| 20260505004555 | 71 | 249 | 1.0 | 3.0 | 0.00 | 0.00 | 0.00 | 47 | 1014.3 |
| 20260505003053 | 71 | 0 | 1.0 | 3.0 | 0.00 | 0.00 | 0.00 | 45 | 1014.1 |
| 20260505001557 | 72 | 0 | 0.0 | 4.0 | 0.00 | 0.00 | 0.00 | 43 | 1014.1 |
| 20260505000115 | 73 | 0 | 1.0 | 3.0 | 0.00 | 0.00 | 0.00 | 42 | 1013.9 |
| 20260504234558 | 74 | 230 | 2.0 | 5.0 | 0.00 | 0.00 | 0.00 | 41 | 1013.8 |
| 20260504233109 | 75 | 213 | 3.0 | 9.0 | 0.00 | 0.00 | 0.00 | 39 | 1013.5 |
| 20260504231607 | 76 | 215 | 2.0 | 8.0 | 0.00 | 0.00 | 0.00 | 39 | 1013.3 |
| 20260504230059 | 76 | 226 | 2.0 | 7.0 | 0.00 | 0.00 | 0.00 | 37 | 1013.3 |
| 20260504224604 | 77 | 204 | 2.0 | 10.0 | 0.00 | 0.00 | 0.00 | 37 | 1013.3 |
| 20260504223127 | 78 | 234 | 1.0 | 8.0 | 0.00 | 0.00 | 0.00 | 36 | 1013.3 |
| 20260504221556 | 78 | 216 | 4.0 | 9.0 | 0.00 | 0.00 | 0.00 | 35 | 1013.4 |
| 20260504220057 | 79 | 221 | 5.0 | 11.0 | 0.00 | 0.00 | 0.00 | 35 | 1013.3 |
| 20260504214555 | 80 | 227 | 1.0 | 10.0 | 0.00 | 0.00 | 0.00 | 33 | 1013.2 |
| 20260504213102 | 81 | 211 | 2.0 | 6.0 | 0.00 | 0.00 | 0.00 | 33 | 1013.2 |
| 20260504211553 | 80 | 220 | 3.0 | 8.0 | 0.00 | 0.00 | 0.00 | 32 | 1013.3 |
| 20260504210101 | 80 | 212 | 4.0 | 12.0 | 0.00 | 0.00 | 0.00 | 31 | 1013.3 |
| 20260504204557 | 80 | 221 | 2.0 | 8.0 | 0.00 | 0.00 | 0.00 | 32 | 1013.4 |
| 20260504203108 | 80 | 248 | 4.0 | 9.0 | 0.00 | 0.00 | 0.00 | 30 | 1013.6 |
| 20260504201559 | 80 | 248 | 3.0 | 8.0 | 0.00 | 0.00 | 0.00 | 30 | 1013.7 |
| 20260504200111 | 80 | 257 | 3.0 | 9.0 | 0.00 | 0.00 | 0.00 | 30 | 1013.9 |
| 20260504194554 | 80 | 248 | 3.0 | 9.0 | 0.00 | 0.00 | 0.00 | 28 | 1013.9 |
| 20260504193058 | 80 | 220 | 2.0 | 8.0 | 0.00 | 0.00 | 0.00 | 29 | 1014.0 |
| 20260504191558 | 79 | 252 | 4.0 | 10.0 | 0.00 | 0.00 | 0.00 | 29 | 1014.3 |
| 20260504190053 | 79 | 268 | 3.0 | 8.0 | 0.00 | 0.00 | 0.00 | 30 | 1014.7 |
| 20260504184558 | 79 | 257 | 3.0 | 7.0 | 0.00 | 0.00 | 0.00 | 29 | 1014.6 |
| 20260504183053 | 78 | 211 | 2.0 | 8.0 | 0.00 | 0.00 | 0.00 | 34 | 1014.8 |
| 20260504181600 | 77 | 205 | 4.0 | 10.0 | 0.00 | 0.00 | 0.00 | 33 | 1014.9 |
| 20260504180054 | 77 | 260 | 3.0 | 9.0 | 0.00 | 0.00 | 0.00 | 34 | 1014.9 |
| 20260504174604 | 76 | 254 | 4.0 | 14.0 | 0.00 | 0.00 | 0.00 | 34 | 1015.2 |
| 20260504173052 | 76 | 212 | 3.0 | 8.0 | 0.00 | 0.00 | 0.00 | 39 | 1015.7 |
| 20260504171555 | 75 | 291 | 3.0 | 8.0 | 0.00 | 0.00 | 0.00 | 39 | 1015.7 |
| 20260504160104 | 71 | 216 | 3.0 | 9.0 | 0.00 | 0.00 | 0.00 | 48 | 1016.8 |
| 20260504120105 | 51 | 242 | 1.0 | 3.0 | 0.00 | 0.00 | 0.00 | 91 | 1017.3 |